Location: Unspecified
(49.2170°N, 0.0000°E)
Time: 10:59:22
(UTC+00:00)

Transit 4A - Pass Details

Date: 17 June 2019
Orbit: 862 x 982 km, 66.8° (Epoch: 22 July)

Event Time Altitude Azimuth Distance (km) Brightness Sun altitude
Rises 18:58:47 0° 318° (NW) 3,693 12.5 8.7°
Reaches altitude 10° 19:01:40 10° 308° (NW) 2,734 12.6 8.3°
Maximum altitude 19:07:04 30° 251° (WSW) 1,672 10.0 7.5°
Drops below altitude 10° 19:12:21 10° 193° (SSW) 2,668 10.2 6.7°
Sets 19:15:09 0° 183° (S) 3,590 10.7 6.3°
